| time (UTC) | temp C | wind direction | speed KPH | gust KPH | rain 1hr cm | rain 24hr cm | rain mn cm | humidity % | barometer mb |
| 20260903193335 | 23 | 305 | 8.0 | 20.9 | 0.00 | 0.00 | 0.00 | 60 | 1009.0 |
| 20260903191828 | 23 | 318 | 8.0 | 19.3 | 0.00 | 0.00 | 0.00 | 61 | 1009.1 |
| 20260903190322 | 23 | 325 | 8.0 | 16.1 | 0.00 | 0.00 | 0.00 | 62 | 1009.2 |
| 20260903185820 | 23 | 22 | 8.0 | 16.1 | 0.00 | 0.00 | 0.00 | 62 | 1009.3 |
| 20260903184318 | 23 | 315 | 8.0 | 20.9 | 0.00 | 0.00 | 0.00 | 62 | 1009.6 |
| 20260903183318 | 23 | 318 | 6.4 | 17.7 | 0.00 | 0.00 | 0.00 | 62 | 1009.6 |
| 20260903182816 | 23 | 320 | 6.4 | 14.5 | 0.00 | 0.00 | 0.00 | 64 | 1009.6 |
| 20260903182312 | 22 | 311 | 6.4 | 12.9 | 0.00 | 0.00 | 0.00 | 62 | 1009.6 |
| 20260903181811 | 22 | 337 | 6.4 | 14.5 | 0.00 | 0.00 | 0.00 | 62 | 1009.6 |
| 20260903181307 | 23 | 309 | 6.4 | 14.5 | 0.00 | 0.00 | 0.00 | 60 | 1009.7 |
| 20260903180804 | 23 | 321 | 6.4 | 12.9 | 0.00 | 0.00 | 0.00 | 59 | 1009.7 |
| 20260903180305 | 23 | 355 | 4.8 | 12.9 | 0.00 | 0.00 | 0.00 | 59 | 1009.7 |
| 20260903175804 | 23 | 13 | 4.8 | 9.7 | 0.00 | 0.00 | 0.00 | 61 | 1009.7 |
| 20260903174759 | 23 | 309 | 4.8 | 9.7 | 0.00 | 0.00 | 0.00 | 61 | 1009.7 |
| 20260903174259 | 22 | 344 | 3.2 | 11.3 | 0.00 | 0.00 | 0.00 | 62 | 1009.7 |
| 20260903173755 | 22 | 334 | 4.8 | 11.3 | 0.00 | 0.00 | 0.00 | 63 | 1009.7 |
| 20260903173251 | 22 | 328 | 3.2 | 9.7 | 0.00 | 0.00 | 0.00 | 63 | 1009.7 |
| 20260903172750 | 22 | 329 | 4.8 | 12.9 | 0.00 | 0.00 | 0.00 | 64 | 1009.8 |
| 20260903172250 | 22 | 327 | 4.8 | 12.9 | 0.00 | 0.00 | 0.00 | 64 | 1009.7 |
| 20260903171751 | 21 | 340 | 3.2 | 9.7 | 0.00 | 0.00 | 0.00 | 66 | 1009.7 |
| 20260903171248 | 21 | 333 | 3.2 | 8.0 | 0.00 | 0.00 | 0.00 | 68 | 1009.7 |
| 20260903170747 | 20 | 333 | 4.8 | 8.0 | 0.00 | 0.00 | 0.00 | 68 | 1009.7 |
| 20260903170246 | 20 | 334 | 4.8 | 9.7 | 0.00 | 0.00 | 0.00 | 70 | 1009.7 |
| 20260903165745 | 20 | 334 | 4.8 | 9.7 | 0.00 | 0.00 | 0.00 | 71 | 1010.0 |
| 20260903164743 | 20 | 317 | 3.2 | 8.0 | 0.00 | 0.00 | 0.00 | 70 | 1010.0 |
| 20260903164242 | 20 | 322 | 3.2 | 8.0 | 0.00 | 0.00 | 0.00 | 73 | 1010.1 |
| 20260903163738 | 20 | 321 | 4.8 | 11.3 | 0.00 | 0.00 | 0.00 | 74 | 1010.1 |
| 20260903162738 | 19 | 327 | 3.2 | 9.7 | 0.00 | 0.00 | 0.00 | 76 | 1010.1 |
| 20260903162234 | 18 | 5 | 3.2 | 9.7 | 0.00 | 0.00 | 0.00 | 78 | 1010.1 |
| 20260903161736 | 18 | 320 | 4.8 | 9.7 | 0.00 | 0.00 | 0.00 | 77 | 1010.1 |
| 20260903160730 | 17 | 329 | 4.8 | 8.0 | 0.00 | 0.00 | 0.00 | 81 | 1010.2 |
| 20260903155226 | 17 | 331 | 3.2 | 9.7 | 0.00 | 0.00 | 0.00 | 85 | 1010.1 |
| 20260903154723 | 16 | 328 | 4.8 | 9.7 | 0.00 | 0.00 | 0.00 | 86 | 1010.1 |
| 20260903154223 | 16 | 317 | 4.8 | 9.7 | 0.00 | 0.00 | 0.00 | 86 | 1010.2 |
| 20260903153726 | 16 | 329 | 3.2 | 9.7 | 0.00 | 0.00 | 0.00 | 86 | 1010.2 |
| 20260903153223 | 16 | 329 | 3.2 | 9.7 | 0.00 | 0.00 | 0.00 | 87 | 1010.2 |
| 20260903152721 | 16 | 333 | 3.2 | 8.0 | 0.00 | 0.00 | 0.00 | 88 | 1010.4 |
| 20260903152220 | 16 | 333 | 3.2 | 8.0 | 0.00 | 0.00 | 0.00 | 88 | 1010.4 |
| 20260903151216 | 16 | 343 | 3.2 | 6.4 | 0.00 | 0.00 | 0.00 | 89 | 1010.5 |
| 20260903150714 | 15 | 344 | 3.2 | 6.4 | 0.00 | 0.00 | 0.00 | 90 | 1010.5 |
| 20260903150218 | 15 | 344 | 3.2 | 6.4 | 0.00 | 0.00 | 0.00 | 90 | 1010.5 |
| 20260903145210 | 15 | 341 | 3.2 | 8.0 | 0.00 | 0.00 | 0.00 | 91 | 1010.5 |
| 20260903144705 | 15 | 325 | 3.2 | 8.0 | 0.00 | 0.00 | 0.00 | 92 | 1010.5 |
| 20260903144202 | 15 | 313 | 1.6 | 8.0 | 0.00 | 0.00 | 0.00 | 92 | 1010.4 |
| 20260903143658 | 14 | 290 | 1.6 | 4.8 | 0.00 | 0.00 | 0.00 | 92 | 1010.4 |
| 20260903143158 | 14 | 290 | 1.6 | 6.4 | 0.00 | 0.00 | 0.00 | 93 | 1010.4 |
| 20260903142154 | 14 | 290 | 1.6 | 4.8 | 0.00 | 0.00 | 0.00 | 93 | 1010.1 |
| 20260903141145 | 13 | 290 | 0.0 | 3.2 | 0.00 | 0.00 | 0.00 | 93 | 1010.1 |
| 20260903140647 | 13 | 290 | 1.6 | 4.8 | 0.00 | 0.00 | 0.00 | 93 | 1010.1 |
| 20260903140146 | 13 | 290 | 1.6 | 6.4 | 0.00 | 0.00 | 0.00 | 93 | 1010.1 |
| 20260903135640 | 13 | 290 | 3.2 | 6.4 | 0.00 | 0.00 | 0.00 | 93 | 1010.0 |
| 20260903135137 | 13 | 290 | 1.6 | 4.8 | 0.00 | 0.00 | 0.00 | 93 | 1010.0 |
| 20260903134136 | 13 | 290 | 1.6 | 6.4 | 0.00 | 0.00 | 0.00 | 92 | 1010.0 |
| 20260903133136 | 13 | 290 | 0.0 | 4.8 | 0.00 | 0.00 | 0.00 | 92 | 1010.0 |
| 20260903132632 | 13 | 290 | 0.0 | 3.2 | 0.00 | 0.00 | 0.00 | 92 | 1010.0 |
| 20260903132128 | 13 | 290 | 0.0 | 3.2 | 0.00 | 0.00 | 0.00 | 92 | 1010.0 |
| 20260903131630 | 13 | 290 | 1.6 | 4.8 | 0.00 | 0.00 | 0.00 | 92 | 1010.0 |
| 20260903131126 | 13 | 290 | 1.6 | 4.8 | 0.00 | 0.00 | 0.00 | 91 | 1010.0 |
| 20260903130619 | 13 | 290 | 1.6 | 3.2 | 0.00 | 0.00 | 0.00 | 91 | 1010.0 |
| 20260903130116 | 13 | 290 | 0.0 | 3.2 | 0.00 | 0.00 | 0.00 | 91 | 1010.0 |
| 20260903125617 | 13 | 290 | 0.0 | 3.2 | 0.00 | 0.00 | 0.00 | 91 | 1010.0 |
| 20260903125117 | 14 | 290 | 1.6 | 3.2 | 0.00 | 0.00 | 0.00 | 91 | 1010.0 |
| 20260903124610 | 14 | 290 | 0.0 | 3.2 | 0.00 | 0.00 | 0.00 | 91 | 1010.0 |
| 20260903124108 | 14 | 290 | 1.6 | 3.2 | 0.00 | 0.00 | 0.00 | 91 | 1009.8 |
| 20260903123611 | 14 | 290 | 1.6 | 3.2 | 0.00 | 0.00 | 0.00 | 90 | 1009.8 |
| 20260903123105 | 14 | 290 | 1.6 | 3.2 | 0.00 | 0.00 | 0.00 | 90 | 1009.8 |
| 20260903122604 | 14 | 290 | 1.6 | 3.2 | 0.00 | 0.00 | 0.00 | 90 | 1009.9 |
| 20260903122101 | 14 | 290 | 1.6 | 3.2 | 0.00 | 0.00 | 0.00 | 90 | 1009.9 |
| 20260903121558 | 14 | 290 | 0.0 | 3.2 | 0.00 | 0.00 | 0.00 | 91 | 1009.9 |
| 20260903121058 | 15 | 290 | 0.0 | 4.8 | 0.00 | 0.00 | 0.00 | 91 | 1010.0 |
| 20260903120558 | 15 | 290 | 0.0 | 4.8 | 0.00 | 0.00 | 0.00 | 91 | 1010.0 |
| 20260903120057 | 15 | 290 | 0.0 | 3.2 | 0.00 | 0.00 | 0.00 | 91 | 1010.0 |
| 20260903115555 | 15 | 290 | 1.6 | 6.4 | 0.00 | 0.00 | 0.00 | 91 | 1010.1 |
| 20260903115053 | 15 | 290 | 1.6 | 6.4 | 0.00 | 0.00 | 0.00 | 91 | 1010.1 |
| 20260903114552 | 15 | 290 | 0.0 | 3.2 | 0.00 | 0.00 | 0.00 | 92 | 1010.1 |
| 20260903114050 | 15 | 290 | 0.0 | 0.0 | 0.00 | 0.00 | 0.00 | 92 | 1010.1 |
| 20260903113550 | 14 | 290 | 0.0 | 0.0 | 0.00 | 0.00 | 0.00 | 92 | 1010.1 |
| 20260903112047 | 14 | 290 | 0.0 | 1.6 | 0.00 | 0.00 | 0.00 | 92 | 1010.2 |
| 20260903111545 | 14 | 290 | 0.0 | 3.2 | 0.00 | 0.00 | 0.00 | 92 | 1010.2 |
| 20260903111045 | 14 | 290 | 0.0 | 3.2 | 0.00 | 0.00 | 0.00 | 92 | 1010.3 |
| 20260903110052 | 14 | 290 | 0.0 | 3.2 | 0.00 | 0.00 | 0.00 | 93 | 1010.3 |
| 20260903105544 | 14 | 290 | 0.0 | 1.6 | 0.00 | 0.00 | 0.00 | 92 | 1010.5 |
| 20260903105045 | 14 | 290 | 0.0 | 0.0 | 0.00 | 0.00 | 0.00 | 92 | 1010.5 |
| 20260903104540 | 14 | 290 | 0.0 | 0.0 | 0.00 | 0.00 | 0.00 | 92 | 1010.5 |
| 20260903104038 | 14 | 290 | 0.0 | 0.0 | 0.00 | 0.00 | 0.00 | 92 | 1010.5 |
| 20260903103534 | 14 | 290 | 0.0 | 0.0 | 0.00 | 0.00 | 0.00 | 92 | 1010.5 |
| 20260903102029 | 14 | 290 | 0.0 | 0.0 | 0.00 | 0.00 | 0.00 | 92 | 1010.5 |
| 20260903101024 | 14 | 290 | 0.0 | 3.2 | 0.00 | 0.00 | 0.00 | 92 | 1010.5 |
| 20260903100519 | 14 | 290 | 0.0 | 3.2 | 0.00 | 0.00 | 0.00 | 92 | 1010.5 |
| 20260903100019 | 14 | 290 | 1.6 | 4.8 | 0.00 | 0.00 | 0.00 | 92 | 1010.5 |
| 20260903095516 | 14 | 290 | 1.6 | 4.8 | 0.00 | 0.00 | 0.00 | 92 | 1010.5 |
| 20260903095011 | 14 | 290 | 1.6 | 4.8 | 0.00 | 0.00 | 0.00 | 91 | 1010.5 |
| 20260903094516 | 14 | 290 | 1.6 | 4.8 | 0.00 | 0.00 | 0.00 | 91 | 1010.5 |
| 20260903094012 | 14 | 290 | 1.6 | 3.2 | 0.00 | 0.00 | 0.00 | 91 | 1010.6 |
| 20260903093504 | 14 | 290 | 0.0 | 6.4 | 0.00 | 0.00 | 0.00 | 91 | 1010.6 |
| 20260903093006 | 14 | 290 | 1.6 | 6.4 | 0.00 | 0.00 | 0.00 | 91 | 1010.6 |
| 20260903092502 | 14 | 290 | 1.6 | 4.8 | 0.00 | 0.00 | 0.00 | 91 | 1010.9 |
| 20260903092000 | 14 | 290 | 1.6 | 4.8 | 0.00 | 0.00 | 0.00 | 91 | 1010.9 |
| 20260903091500 | 15 | 290 | 1.6 | 4.8 | 0.00 | 0.00 | 0.00 | 91 | 1010.9 |
| 20260903090958 | 15 | 290 | 1.6 | 4.8 | 0.00 | 0.00 | 0.00 | 91 | 1011.1 |
| 20260903090458 | 15 | 290 | 1.6 | 4.8 | 0.00 | 0.00 | 0.00 | 91 | 1011.1 |
| 20260903085955 | 15 | 290 | 1.6 | 4.8 | 0.00 | 0.00 | 0.00 | 91 | 1011.1 |
| 20260903085459 | 15 | 290 | 1.6 | 9.7 | 0.00 | 0.00 | 0.00 | 91 | 1011.1 |
| 20260903084452 | 15 | 290 | 3.2 | 8.0 | 0.00 | 0.00 | 0.00 | 90 | 1011.1 |
| 20260903083950 | 15 | 290 | 1.6 | 8.0 | 0.00 | 0.00 | 0.00 | 90 | 1011.1 |
| 20260903083449 | 15 | 290 | 1.6 | 4.8 | 0.00 | 0.00 | 0.00 | 90 | 1011.1 |
| 20260903082445 | 15 | 290 | 1.6 | 4.8 | 0.00 | 0.00 | 0.00 | 90 | 1011.2 |
| 20260903081946 | 15 | 290 | 1.6 | 4.8 | 0.00 | 0.00 | 0.00 | 90 | 1011.2 |
| 20260903081442 | 15 | 290 | 1.6 | 4.8 | 0.00 | 0.00 | 0.00 | 89 | 1011.2 |
| 20260903080438 | 15 | 290 | 0.0 | 3.2 | 0.00 | 0.00 | 0.00 | 89 | 1011.4 |
| 20260903075936 | 15 | 290 | 0.0 | 3.2 | 0.00 | 0.00 | 0.00 | 89 | 1011.4 |
| 20260903074926 | 15 | 290 | 0.0 | 4.8 | 0.00 | 0.00 | 0.00 | 89 | 1011.4 |
| 20260903074420 | 15 | 290 | 1.6 | 4.8 | 0.00 | 0.00 | 0.00 | 89 | 1011.4 |
| 20260903073419 | 15 | 290 | 1.6 | 4.8 | 0.00 | 0.00 | 0.00 | 89 | 1011.5 |
| 20260903072919 | 15 | 290 | 1.6 | 6.4 | 0.00 | 0.00 | 0.00 | 89 | 1011.5 |
| 20260903072418 | 16 | 290 | 1.6 | 6.4 | 0.00 | 0.00 | 0.00 | 89 | 1011.5 |
| 20260903071916 | 16 | 290 | 1.6 | 6.4 | 0.00 | 0.00 | 0.00 | 89 | 1011.5 |
| 20260903071419 | 16 | 290 | 0.0 | 4.8 | 0.00 | 0.00 | 0.00 | 90 | 1011.5 |
| 20260903070914 | 16 | 290 | 0.0 | 4.8 | 0.00 | 0.00 | 0.00 | 90 | 1011.5 |
| 20260903070411 | 16 | 290 | 0.0 | 6.4 | 0.00 | 0.00 | 0.00 | 90 | 1011.5 |
| 20260903065906 | 16 | 290 | 1.6 | 6.4 | 0.00 | 0.00 | 0.00 | 90 | 1011.5 |
| 20260903065407 | 16 | 290 | 0.0 | 4.8 | 0.00 | 0.00 | 0.00 | 90 | 1011.3 |
| 20260903064907 | 16 | 290 | 1.6 | 4.8 | 0.00 | 0.00 | 0.00 | 90 | 1011.3 |
| 20260903064405 | 16 | 290 | 1.6 | 4.8 | 0.00 | 0.00 | 0.00 | 90 | 1011.3 |
| 20260903063909 | 16 | 290 | 1.6 | 9.7 | 0.00 | 0.00 | 0.00 | 90 | 1011.2 |
| 20260903062857 | 16 | 294 | 3.2 | 9.7 | 0.00 | 0.00 | 0.00 | 90 | 1011.2 |
| 20260903062357 | 16 | 328 | 3.2 | 6.4 | 0.00 | 0.00 | 0.00 | 90 | 1011.2 |
| 20260903061858 | 16 | 329 | 3.2 | 6.4 | 0.00 | 0.00 | 0.00 | 90 | 1011.2 |
| 20260903061355 | 16 | 329 | 3.2 | 6.4 | 0.00 | 0.00 | 0.00 | 90 | 1011.3 |
| 20260903060851 | 16 | 329 | 3.2 | 8.0 | 0.00 | 0.00 | 0.00 | 90 | 1011.3 |
| 20260903060350 | 16 | 329 | 3.2 | 8.0 | 0.00 | 0.00 | 0.00 | 90 | 1011.3 |
| 20260903055847 | 16 | 289 | 4.8 | 9.7 | 0.00 | 0.00 | 0.00 | 90 | 1011.3 |
| 20260903054847 | 16 | 331 | 3.2 | 9.7 | 0.00 | 0.00 | 0.00 | 90 | 1011.3 |
| 20260903053846 | 16 | 342 | 3.2 | 6.4 | 0.00 | 0.00 | 0.00 | 90 | 1011.4 |
| 20260903053345 | 16 | 342 | 3.2 | 6.4 | 0.00 | 0.00 | 0.00 | 90 | 1011.4 |
| 20260903052846 | 16 | 342 | 3.2 | 6.4 | 0.00 | 0.00 | 0.00 | 90 | 1011.3 |
| 20260903052340 | 16 | 342 | 1.6 | 6.4 | 0.00 | 0.00 | 0.00 | 89 | 1011.3 |
| 20260903051837 | 17 | 342 | 1.6 | 6.4 | 0.00 | 0.00 | 0.00 | 89 | 1011.3 |
| 20260903051334 | 17 | 342 | 1.6 | 6.4 | 0.00 | 0.00 | 0.00 | 89 | 1011.3 |
| 20260903050835 | 17 | 343 | 1.6 | 9.7 | 0.00 | 0.00 | 0.00 | 89 | 1011.3 |
| 20260903045833 | 17 | 319 | 3.2 | 8.0 | 0.00 | 0.00 | 0.00 | 89 | 1011.2 |
| 20260903044332 | 17 | 319 | 3.2 | 8.0 | 0.00 | 0.00 | 0.00 | 88 | 1011.2 |
| 20260903042832 | 17 | 319 | 3.2 | 6.4 | 0.00 | 0.00 | 0.00 | 88 | 1011.1 |
| 20260903042328 | 17 | 319 | 3.2 | 8.0 | 0.00 | 0.00 | 0.00 | 88 | 1011.1 |
| 20260903041828 | 17 | 321 | 4.8 | 11.3 | 0.00 | 0.00 | 0.00 | 88 | 1011.1 |
| 20260903041325 | 17 | 321 | 3.2 | 11.3 | 0.00 | 0.00 | 0.00 | 88 | 1011.1 |
| 20260903040825 | 17 | 310 | 3.2 | 8.0 | 0.00 | 0.00 | 0.00 | 88 | 1011.1 |
| 20260903040324 | 17 | 274 | 3.2 | 16.1 | 0.00 | 0.00 | 0.00 | 88 | 1011.1 |
| 20260903035821 | 17 | 270 | 4.8 | 16.1 | 0.00 | 0.00 | 0.00 | 88 | 1010.9 |
| 20260903035320 | 17 | 302 | 6.4 | 12.9 | 0.00 | 0.00 | 0.00 | 88 | 1010.9 |
| 20260903034820 | 17 | 265 | 4.8 | 12.9 | 0.00 | 0.00 | 0.00 | 88 | 1010.9 |
| 20260903034320 | 17 | 284 | 4.8 | 14.5 | 0.00 | 0.00 | 0.00 | 87 | 1010.7 |
| 20260903033818 | 17 | 305 | 4.8 | 14.5 | 0.00 | 0.00 | 0.00 | 87 | 1010.7 |
| 20260903033320 | 17 | 277 | 4.8 | 11.3 | 0.00 | 0.00 | 0.00 | 87 | 1010.7 |
| 20260903032816 | 17 | 278 | 4.8 | 11.3 | 0.00 | 0.00 | 0.00 | 86 | 1010.6 |
| 20260903032315 | 17 | 279 | 3.2 | 11.3 | 0.00 | 0.00 | 0.00 | 86 | 1010.6 |
| 20260903030807 | 17 | 271 | 4.8 | 9.7 | 0.00 | 0.00 | 0.00 | 85 | 1010.6 |
| 20260903030305 | 17 | 318 | 4.8 | 9.7 | 0.00 | 0.00 | 0.00 | 85 | 1010.6 |
| 20260903025805 | 17 | 275 | 3.2 | 9.7 | 0.00 | 0.00 | 0.00 | 84 | 1010.6 |
| 20260903025306 | 17 | 313 | 3.2 | 9.7 | 0.00 | 0.00 | 0.00 | 84 | 1010.6 |
| 20260903024804 | 18 | 313 | 4.8 | 12.9 | 0.00 | 0.00 | 0.00 | 84 | 1010.6 |
| 20260903024300 | 18 | 269 | 4.8 | 12.9 | 0.00 | 0.00 | 0.00 | 83 | 1010.6 |
| 20260903023757 | 18 | 275 | 4.8 | 11.3 | 0.00 | 0.00 | 0.00 | 83 | 1010.6 |
| 20260903023257 | 18 | 304 | 4.8 | 12.9 | 0.00 | 0.00 | 0.00 | 82 | 1010.6 |
| 20260903022756 | 18 | 318 | 4.8 | 12.9 | 0.00 | 0.00 | 0.00 | 82 | 1010.6 |
| 20260903021750 | 18 | 305 | 4.8 | 11.3 | 0.00 | 0.00 | 0.00 | 81 | 1010.6 |
| 20260903021247 | 18 | 294 | 6.4 | 17.7 | 0.00 | 0.00 | 0.00 | 80 | 1010.7 |
| 20260903020744 | 18 | 263 | 6.4 | 17.7 | 0.00 | 0.00 | 0.00 | 80 | 1010.7 |
| 20260903020245 | 18 | 266 | 6.4 | 16.1 | 0.00 | 0.00 | 0.00 | 79 | 1010.7 |
| 20260903015741 | 18 | 283 | 6.4 | 16.1 | 0.00 | 0.00 | 0.00 | 78 | 1010.7 |
| 20260903014737 | 19 | 305 | 4.8 | 16.1 | 0.00 | 0.00 | 0.00 | 76 | 1010.7 |
| 20260903014235 | 19 | 280 | 6.4 | 16.1 | 0.00 | 0.00 | 0.00 | 75 | 1010.7 |
| 20260903013735 | 20 | 289 | 6.4 | 12.9 | 0.00 | 0.00 | 0.00 | 75 | 1010.7 |
| 20260903012234 | 21 | 323 | 8.0 | 16.1 | 0.00 | 0.00 | 0.00 | 71 | 1010.7 |
| 20260903011734 | 21 | 331 | 6.4 | 16.1 | 0.00 | 0.00 | 0.00 | 69 | 1010.7 |
| 20260903011231 | 21 | 309 | 6.4 | 14.5 | 0.00 | 0.00 | 0.00 | 68 | 1010.8 |
| 20260903010735 | 21 | 301 | 6.4 | 14.5 | 0.00 | 0.00 | 0.00 | 69 | 1010.8 |
| 20260903010231 | 21 | 300 | 8.0 | 14.5 | 0.00 | 0.00 | 0.00 | 69 | 1010.8 |
| 20260903005730 | 22 | 309 | 8.0 | 16.1 | 0.00 | 0.00 | 0.00 | 69 | 1010.8 |
| 20260903005227 | 22 | 310 | 8.0 | 16.1 | 0.00 | 0.00 | 0.00 | 68 | 1010.8 |
| 20260903004725 | 22 | 266 | 6.4 | 14.5 | 0.00 | 0.00 | 0.00 | 68 | 1010.8 |
| 20260903004224 | 22 | 314 | 6.4 | 14.5 | 0.00 | 0.00 | 0.00 | 67 | 1010.9 |
| 20260903003726 | 22 | 311 | 6.4 | 14.5 | 0.00 | 0.00 | 0.00 | 67 | 1010.9 |
| 20260903002721 | 22 | 305 | 8.0 | 19.3 | 0.00 | 0.00 | 0.00 | 67 | 1010.9 |
| 20260903002219 | 22 | 346 | 8.0 | 20.9 | 0.00 | 0.00 | 0.00 | 67 | 1010.9 |
| 20260903001717 | 22 | 346 | 8.0 | 20.9 | 0.00 | 0.00 | 0.00 | 67 | 1011.0 |
| 20260903000718 | 22 | 313 | 6.4 | 14.5 | 0.00 | 0.00 | 0.00 | 68 | 1010.9 |
| 20260902235709 | 21 | 302 | 9.7 | 20.9 | 0.00 | 0.00 | 0.00 | 68 | 1011.0 |
| 20260902235207 | 22 | 297 | 9.7 | 20.9 | 0.00 | 0.00 | 0.00 | 65 | 1011.0 |
| 20260902234704 | 22 | 294 | 9.7 | 20.9 | 0.00 | 0.00 | 0.00 | 65 | 1011.0 |
| 20260902234206 | 22 | 288 | 9.7 | 19.3 | 0.00 | 0.00 | 0.00 | 66 | 1011.1 |
| 20260902233702 | 22 | 256 | 9.7 | 19.3 | 0.00 | 0.00 | 0.00 | 65 | 1011.1 |
| 20260902233202 | 22 | 288 | 9.7 | 22.5 | 0.00 | 0.00 | 0.00 | 63 | 1011.2 |
| 20260902232157 | 23 | 318 | 9.7 | 22.5 | 0.00 | 0.00 | 0.00 | 60 | 1011.3 |
| 20260902231655 | 23 | 306 | 8.0 | 19.3 | 0.00 | 0.00 | 0.00 | 59 | 1011.3 |
| 20260902231154 | 24 | 295 | 8.0 | 22.5 | 0.00 | 0.00 | 0.00 | 58 | 1011.4 |
| 20260902230654 | 24 | 331 | 8.0 | 22.5 | 0.00 | 0.00 | 0.00 | 58 | 1011.4 |
| 20260902225654 | 25 | 331 | 6.4 | 17.7 | 0.00 | 0.00 | 0.00 | 57 | 1011.6 |
| 20260902224147 | 23 | 315 | 8.0 | 16.1 | 0.00 | 0.00 | 0.00 | 59 | 1011.7 |
| 20260902223645 | 23 | 306 | 9.7 | 20.9 | 0.00 | 0.00 | 0.00 | 60 | 1011.7 |
| 20260902222640 | 23 | 282 | 9.7 | 24.1 | 0.00 | 0.00 | 0.00 | 57 | 1011.8 |
| 20260902222137 | 24 | 309 | 8.0 | 20.9 | 0.00 | 0.00 | 0.00 | 56 | 1011.8 |
| 20260902221132 | 24 | 325 | 8.0 | 17.7 | 0.00 | 0.00 | 0.00 | 57 | 1011.9 |
| 20260902220631 | 24 | 311 | 9.7 | 19.3 | 0.00 | 0.00 | 0.00 | 57 | 1011.9 |
| 20260902220128 | 23 | 313 | 9.7 | 22.5 | 0.00 | 0.00 | 0.00 | 58 | 1011.9 |
| 20260902215625 | 23 | 298 | 8.0 | 22.5 | 0.00 | 0.00 | 0.00 | 59 | 1011.9 |
| 20260902214621 | 23 | 312 | 8.0 | 20.9 | 0.00 | 0.00 | 0.00 | 59 | 1011.9 |
| 20260902214125 | 24 | 326 | 6.4 | 17.7 | 0.00 | 0.00 | 0.00 | 57 | 1011.8 |
| 20260902213616 | 24 | 296 | 8.0 | 17.7 | 0.00 | 0.00 | 0.00 | 57 | 1011.8 |
| 20260902212612 | 25 | 103 | 6.4 | 17.7 | 0.00 | 0.00 | 0.00 | 55 | 1011.9 |
| 20260902212109 | 25 | 338 | 8.0 | 20.9 | 0.00 | 0.00 | 0.00 | 56 | 1011.9 |
| 20260902211608 | 25 | 339 | 8.0 | 20.9 | 0.00 | 0.00 | 0.00 | 55 | 1011.9 |
| 20260902211109 | 25 | 333 | 8.0 | 17.7 | 0.00 | 0.00 | 0.00 | 55 | 1011.9 |
| 20260902210609 | 25 | 333 | 6.4 | 16.1 | 0.00 | 0.00 | 0.00 | 55 | 1011.9 |
| 20260902210106 | 25 | 333 | 6.4 | 16.1 | 0.00 | 0.00 | 0.00 | 55 | 1011.9 |
| 20260902205606 | 25 | 321 | 6.4 | 19.3 | 0.00 | 0.00 | 0.00 | 56 | 1011.9 |
| 20260902205101 | 25 | 5 | 8.0 | 19.3 | 0.00 | 0.00 | 0.00 | 55 | 1011.9 |
| 20260902204607 | 25 | 313 | 6.4 | 16.1 | 0.00 | 0.00 | 0.00 | 56 | 1011.9 |
| 20260902204103 | 25 | 345 | 6.4 | 16.1 | 0.00 | 0.00 | 0.00 | 56 | 1011.9 |
| 20260902203559 | 25 | 305 | 8.0 | 16.1 | 0.00 | 0.00 | 0.00 | 55 | 1011.9 |
| 20260902203058 | 25 | 313 | 8.0 | 16.1 | 0.00 | 0.00 | 0.00 | 56 | 1011.9 |
| 20260902202556 | 25 | 346 | 8.0 | 17.7 | 0.00 | 0.00 | 0.00 | 55 | 1012.0 |
| 20260902202055 | 24 | 335 | 8.0 | 17.7 | 0.00 | 0.00 | 0.00 | 56 | 1012.0 |
| 20260902201556 | 25 | 348 | 8.0 | 17.7 | 0.00 | 0.00 | 0.00 | 55 | 1012.0 |
| 20260902201050 | 25 | 320 | 8.0 | 17.7 | 0.00 | 0.00 | 0.00 | 55 | 1012.1 |
| 20260902200549 | 25 | 283 | 6.4 | 16.1 | 0.00 | 0.00 | 0.00 | 54 | 1012.1 |
| 20260902195550 | 24 | 322 | 8.0 | 14.5 | 0.00 | 0.00 | 0.00 | 53 | 1012.0 |
| 20260902194547 | 24 | 325 | 8.0 | 17.7 | 0.00 | 0.00 | 0.00 | 53 | 1012.0 |
| 20260902194049 | 25 | 311 | 8.0 | 17.7 | 0.00 | 0.00 | 0.00 | 52 | 1012.0 |
| 20260902193544 | 24 | 345 | 8.0 | 16.1 | 0.00 | 0.00 | 0.00 | 53 | 1012.0 |